[[{"header":{"parameterUnit":"m.s-1","parameterCategory":1,"la1":30.2991,"la2":30.254,"lo1":-89.0895,"lo2":-89.0444,"dy":0.0017,"dx":0.0017,"nx":28,"ny":28,"refTime":"2023-10-06T09:00:00:Z","depth":0,"parameterNumber":2,"parameterNumberName":"U-component_of_WINDS"},"data":[0,0,0,0,0,0,0,0,0,0,0,0,0,0,0,0,0,0,0,0,0,0,0,0,0,0,0,0,0,0,0,0,0,0,0,0,0,0,0,0,0,0,0,0,0,0,0,0,0,0,0,0,0,0,0,0,0,0,-1.6253,-1.6254,0,-1.6301,-1.6302,-1.6302,-1.6268,-1.6266,-1.6265,-1.6263,-1.6313,-1.6315,-1.6318,0,0,0,0,0,0,0,0,0,0,0,0,0,-1.613,-1.6133,-1.6253,-1.6254,-1.6254,-1.6301,-1.6302,-1.6303,-1.6268,-1.6266,-1.6264,-1.6263,-1.6312,-1.6315,-1.6318,0,0,0,0,0,0,0,0,0,0,0,0,0,-1.6182,-1.6134,-1.6253,-1.6243,-1.6242,-1.6301,-1.6302,-1.6303,-1.6268,-1.6266,-1.6264,-1.6262,-1.6311,-1.6315,-1.6319,-1.6391,0,0,-1.6332,-1.6333,0,0,0,0,0,0,0,0,-1.6179,-1.6186,-1.6244,-1.6244,-1.6243,-1.6276,-1.6277,-1.6332,-1.6269,-1.6259,-1.6263,-1.6261,-1.6303,-1.6307,-1.6321,-1.6393,-1.6395,-1.6332,-1.6334,-1.6336,-1.6337,0,0,0,0,0,0,0,-1.6175,-1.6184,-1.6272,-1.6245,-1.6244,-1.6236,-1.624,-1.6287,-1.6293,-1.6259,-1.6257,-1.6263,-1.6302,-1.6317,-1.6322,-1.6396,-1.6332,-1.6335,-1.6338,-1.634,-1.6528,-1.653,0,0,0,0,0,0,-1.6173,-1.6181,-1.6271,-1.6274,-1.6205,-1.624,-1.6245,-1.6268,-1.6292,-1.6294,-1.6265,-1.6261,-1.6311,-1.6317,-1.6324,-1.641,-1.6336,-1.634,-1.6342,-1.6526,-1.6529,-1.6531,0,0,0,0,0,0,-1.617,-1.6181,-1.6269,-1.6227,-1.6237,-1.6244,-1.627,-1.627,-1.6286,-1.6297,-1.6297,-1.628,-1.631,-1.6318,-1.6374,-1.6411,-1.6342,-1.6346,-1.6523,-1.6526,-1.653,-1.6582,0,0,0,0,0,0,-1.6167,-1.618,-1.6208,-1.6228,-1.624,-1.6319,-1.6273,-1.6273,-1.6293,-1.6288,-1.6311,-1.6312,-1.6309,-1.6368,-1.6378,-1.6415,-1.6349,-1.6519,-1.6524,-1.6529,-1.6577,-1.6587,-1.6595,0,0,0,0,0,-1.6163,-1.6221,-1.621,-1.6221,-1.6274,-1.6321,-1.6328,-1.6323,-1.6296,-1.6324,-1.633,-1.6312,-1.6405,-1.6374,-1.6385,-1.6424,-1.6517,-1.6523,-1.6528,-1.6573,-1.6585,-1.6595,0,0,0,0,0,0,-1.6205,-1.6223,-1.6211,-1.6277,-1.6298,-1.6315,-1.635,-1.6336,-1.6364,-1.6359,-1.6351,-1.6356,-1.6415,-1.6425,-1.6391,-1.6494,-1.6457,-1.6465,-1.6486,-1.6498,-1.6507,-1.6504,-1.6352,0,0,0,0,0,-1.6222,-1.6259,-1.6272,-1.6329,-1.634,-1.6343,-1.6363,-1.6357,-1.6378,-1.6387,-1.6398,-1.6419,-1.6453,-1.6476,-1.6508,-1.6577,-1.6582,-1.6609,-1.6618,-1.6626,-1.6634,-1.6671,-1.6684,-1.655,-1.655,-1.655,0,0,-1.6258,-1.6272,-1.6296,-1.6338,-1.6354,-1.6391,-1.6351,-1.6393,-1.6421,-1.6393,-1.6447,-1.6456,-1.6479,-1.6542,-1.657,-1.6552,-1.6671,-1.6633,-1.6639,-1.6643,-1.6678,-1.6691,-1.6702,-1.6554,-1.6553,-1.6553,0,0,-1.6343,-1.6357,-1.6407,-1.6422,-1.6446,-1.6447,-1.6459,-1.6478,-1.6483,-1.6537,-1.6517,-1.655,-1.6608,-1.6626,-1.6642,-1.6732,-1.6716,-1.6743,-1.6792,-1.6828,-1.6839,-1.6848,-1.6881,-1.6893,-1.675,-1.675,-1.675,0,-1.6385,-1.6441,-1.6434,-1.6477,-1.6496,-1.6472,-1.6522,-1.6538,-1.6571,-1.6584,-1.6563,-1.6636,-1.6649,-1.6716,-1.6738,-1.6752,-1.6765,-1.6741,-1.6838,-1.6847,-1.6856,-1.6887,-1.6899,-1.6753,-1.6753,-1.6752,-1.6752,0,-1.6492,-1.6531,-1.6568,-1.66,-1.6623,-1.6669,-1.6668,-1.6693,-1.6684,-1.6688,-1.6743,-1.6758,-1.6793,-1.6807,-1.68,-1.6873,-1.6861,-1.6839,-1.6801,-1.6872,-1.6901,-1.6913,-1.6758,-1.6756,-1.6756,-1.6755,0,0,-1.6607,-1.6633,-1.6647,-1.6661,-1.6685,-1.6715,-1.676,-1.6793,-1.6814,-1.6837,-1.6875,-1.6924,-1.6904,-1.6922,-1.6916,-1.6948,-1.7019,-1.6922,-1.6922,-1.694,-1.7101,-1.7119,-1.7133,-1.7007,-1.701,-1.7011,-1.71,0,-1.6693,-1.6772,-1.6766,-1.684,-1.6877,-1.6854,-1.6893,-1.6911,-1.6915,-1.6946,-1.6951,-1.6986,-1.6956,-1.6967,-1.6998,-1.7004,-1.7051,-1.6997,-1.7043,-1.7045,-1.7039,-1.7148,-1.7167,-1.725,-1.7111,-1.7113,-1.7114,0,-1.6806,-1.6833,-1.6911,-1.6928,-1.6943,-1.6979,-1.7009,-1.7039,-1.7059,-1.7059,-1.708,-1.7068,-1.7113,-1.7072,-1.7134,-1.7097,-1.7115,-1.7121,-1.7124,-1.7129,-1.7085,-1.7157,-1.7276,-1.7289,-1.7132,-1.7131,-1.7129,0,-1.6883,-1.6938,-1.6992,-1.7005,-1.7027,-1.7052,-1.7062,-1.708,-1.71,-1.7126,-1.714,-1.717,-1.7188,-1.7211,-1.7208,-1.7179,-1.7271,-1.723,-1.7273,-1.7273,-1.7295,-1.7294,-1.7419,-1.7304,-1.7304,-1.7304,-1.7304,0,-1.6982,-1.7031,-1.7027,-1.7061,-1.7114,-1.7106,-1.7159,-1.7166,-1.7182,-1.7216,-1.7198,-1.723,-1.7223,-1.7255,-1.7252,-1.7304,-1.7311,-1.7313,-1.7312,-1.7316,-1.7316,-1.7329,-1.7323,-1.7307,-1.7306,-1.7306,-1.7305,0,-1.7078,-1.7078,-1.7135,-1.715,-1.7155,-1.7194,-1.7208,-1.7239,-1.7241,-1.7284,-1.7294,-1.7297,-1.7333,-1.7332,-1.7373,-1.7371,-1.7435,-1.7427,-1.7429,-1.7427,-1.7471,-1.7467,-1.761,-1.7628,-1.75,-1.7501,-1.7502,0,-1.7142,-1.7179,-1.7198,-1.7219,-1.7231,-1.7266,-1.7287,-1.7279,-1.7302,-1.7327,-1.7355,-1.739,-1.7417,-1.7477,-1.7483,-1.7514,-1.7507,-1.7555,-1.7512,-1.7514,-1.7509,-1.7507,-1.7511,-1.7564,-1.7565,-1.7566,-1.7567,0,-1.7255,-1.7253,-1.7283,-1.7314,-1.7339,-1.7363,-1.7384,-1.7403,-1.7397,-1.7423,-1.746,-1.7482,-1.7524,-1.7559,-1.7588,-1.7598,-1.7583,-1.758,-1.7592,-1.7597,-1.7597,-1.7598,-1.7453,-1.7578,-1.7577,-1.7576,-1.7575,-1.7575,-1.7338,-1.7369,-1.7388,-1.7423,-1.7438,-1.7458,-1.7488,-1.7494,-1.7525,-1.7558,-1.7552,-1.7594,-1.7612,-1.765,-1.7663,-1.7695,-1.7678,-1.7695,-1.7699,-1.7704,-1.7709,-1.7591,-1.77,-1.77,-1.77,-1.7699,-1.7699,0,-1.7451,-1.7461,-1.7493,-1.7524,-1.7551,-1.7532,-1.7555,-1.7579,-1.7616,-1.7634,-1.7662,-1.7704,-1.7738,-1.7746,-1.7777,-1.7802,-1.7795,-1.7811,-1.7809,-1.7812,-1.7722,-1.7709,-1.7815,-1.7815,-1.7815,-1.7815,-1.7815,-1.7815,-1.7513,-1.7566,-1.7566,-1.7626,-1.7636,-1.7677,-1.7691,-1.771,-1.7725,-1.7773,-1.7801,-1.7805,-1.7819,-1.7852,-1.7882,-1.7883,-1.7896,-1.7915,-1.7913,-1.783,-1.7818,-1.7807,-1.7795,-1.7917,-1.7918,-1.8001,-1.8001,-1.8002]},{"header":{"parameterUnit":"m.s-1","parameterCategory":1,"la1":30.2991,"la2":30.254,"lo1":-89.0895,"lo2":-89.0444,"dy":0.0017,"dx":0.0017,"nx":28,"ny":28,"refTime":"2023-10-06T09:00:00:Z","depth":0,"parameterNumber":3,"parameterNumberName":"V-component_of_WINDS"},"data":[0,0,0,0,0,0,0,0,0,0,0,0,0,0,0,0,0,0,0,0,0,0,0,0,0,0,0,0,0,0,0,0,0,0,0,0,0,0,0,0,0,0,0,0,0,0,0,0,0,0,0,0,0,0,0,0,0,0,-7.3439,-7.344,0,-7.3532,-7.3534,-7.3535,-7.3469,-7.3466,-7.3463,-7.346,-7.355,-7.3555,-7.356,0,0,0,0,0,0,0,0,0,0,0,0,0,-7.3197,-7.3202,-7.3438,-7.344,-7.3441,-7.3532,-7.3534,-7.3535,-7.3469,-7.3466,-7.3462,-7.3459,-7.3548,-7.3554,-7.3561,0,0,0,0,0,0,0,0,0,0,0,0,0,-7.3297,-7.3203,-7.3438,-7.3419,-7.3418,-7.3532,-7.3534,-7.3535,-7.347,-7.3465,-7.3461,-7.3457,-7.3546,-7.3554,-7.3561,-7.3697,0,0,-7.3585,-7.3588,0,0,0,0,0,0,0,0,-7.3292,-7.3306,-7.3421,-7.3421,-7.342,-7.3484,-7.3481,-7.3589,-7.3471,-7.345,-7.346,-7.3455,-7.3531,-7.354,-7.3567,-7.3701,-7.3705,-7.3586,-7.359,-7.3594,-7.3596,0,0,0,0,0,0,0,-7.3285,-7.3302,-7.3475,-7.3423,-7.3422,-7.3404,-7.3414,-7.3501,-7.3514,-7.3452,-7.3447,-7.3459,-7.353,-7.356,-7.3569,-7.3706,-7.3585,-7.3592,-7.3597,-7.36,-7.3957,-7.3962,0,0,0,0,0,0,-7.328,-7.3296,-7.3472,-7.3478,-7.3344,-7.3412,-7.3423,-7.3468,-7.3513,-7.3516,-7.3463,-7.3456,-7.3549,-7.356,-7.3572,-7.3734,-7.3594,-7.3601,-7.3605,-7.3952,-7.3958,-7.3963,0,0,0,0,0,0,-7.3275,-7.3297,-7.3469,-7.3386,-7.3407,-7.3421,-7.3473,-7.3472,-7.3502,-7.3522,-7.3523,-7.3492,-7.3546,-7.3561,-7.3667,-7.3736,-7.3604,-7.3611,-7.3946,-7.3954,-7.3961,-7.406,0,0,0,0,0,0,-7.3269,-7.3295,-7.3348,-7.3388,-7.3412,-7.3564,-7.3477,-7.3477,-7.3516,-7.3508,-7.3549,-7.3551,-7.3543,-7.3656,-7.3675,-7.3744,-7.3617,-7.394,-7.395,-7.3958,-7.405,-7.407,-7.4086,0,0,0,0,0,-7.326,-7.3371,-7.3351,-7.3373,-7.3478,-7.3568,-7.3582,-7.3572,-7.3522,-7.3575,-7.3587,-7.355,-7.3726,-7.3667,-7.3688,-7.3761,-7.3936,-7.3947,-7.3958,-7.4042,-7.4066,-7.4086,0,0,0,0,0,0,-7.3336,-7.3376,-7.3354,-7.3481,-7.3523,-7.3557,-7.3623,-7.3597,-7.3652,-7.3641,-7.3626,-7.3635,-7.3747,-7.3764,-7.3699,-7.3895,-7.3822,-7.3838,-7.388,-7.3902,-7.392,-7.3913,-7.3624,0,0,0,0,0,-7.3368,-7.344,-7.347,-7.3579,-7.3601,-7.3609,-7.3648,-7.3637,-7.3678,-7.3695,-7.3715,-7.3755,-7.3819,-7.3861,-7.3921,-7.4052,-7.406,-7.4113,-7.4131,-7.4145,-7.4159,-7.423,-7.4254,-7.3999,-7.3999,-7.3999,0,0,-7.3434,-7.3464,-7.351,-7.3595,-7.3625,-7.3699,-7.3624,-7.3704,-7.3758,-7.3706,-7.3809,-7.3825,-7.3868,-7.3988,-7.4041,-7.4005,-7.4231,-7.4159,-7.4171,-7.4176,-7.4244,-7.4268,-7.4289,-7.4007,-7.4005,-7.4004,0,0,-7.3591,-7.3622,-7.3717,-7.375,-7.3798,-7.3803,-7.3826,-7.3865,-7.3875,-7.3978,-7.3941,-7.4004,-7.4114,-7.4147,-7.4178,-7.435,-7.4318,-7.437,-7.4463,-7.4532,-7.4552,-7.457,-7.4632,-7.4654,-7.4383,-7.4383,-7.4384,0,-7.3666,-7.3778,-7.3768,-7.3853,-7.3891,-7.385,-7.3945,-7.3976,-7.4041,-7.4068,-7.4027,-7.4166,-7.4192,-7.4319,-7.4362,-7.4388,-7.4413,-7.4365,-7.4551,-7.4568,-7.4585,-7.4643,-7.4667,-7.439,-7.4389,-7.4388,-7.4388,0,-7.3868,-7.3946,-7.4016,-7.4083,-7.4129,-7.4218,-7.422,-7.4268,-7.4254,-7.4262,-7.4368,-7.4398,-7.4464,-7.4493,-7.4479,-7.4618,-7.4595,-7.4553,-7.448,-7.4615,-7.467,-7.4692,-7.4398,-7.4396,-7.4394,-7.4393,0,0,-7.4075,-7.4137,-7.4163,-7.4193,-7.4244,-7.4303,-7.439,-7.4457,-7.4498,-7.4544,-7.4616,-7.4712,-7.4674,-7.4709,-7.4698,-7.4759,-7.4895,-7.471,-7.4711,-7.4744,-7.5051,-7.5083,-7.5109,-7.4873,-7.4878,-7.4881,-7.5047,0,-7.4236,-7.4391,-7.4385,-7.4529,-7.4601,-7.4563,-7.4639,-7.4677,-7.4688,-7.4749,-7.4759,-7.4828,-7.4772,-7.4794,-7.4853,-7.4866,-7.4956,-7.4853,-7.4939,-7.4943,-7.4931,-7.5137,-7.5171,-7.5326,-7.5069,-7.5072,-7.5075,0,-7.4445,-7.4501,-7.4653,-7.4694,-7.4724,-7.4793,-7.4854,-7.4913,-7.4956,-7.4959,-7.5,-7.498,-7.5066,-7.4992,-7.5111,-7.5041,-7.5076,-7.5088,-7.5093,-7.5101,-7.5017,-7.5151,-7.5376,-7.5399,-7.5108,-7.5106,-7.5103,0,-7.4582,-7.4695,-7.4801,-7.4827,-7.4878,-7.4928,-7.4951,-7.4989,-7.503,-7.5083,-7.511,-7.5171,-7.5205,-7.5252,-7.5248,-7.5194,-7.537,-7.5294,-7.5374,-7.5374,-7.5413,-7.541,-7.5647,-7.5435,-7.5434,-7.5434,-7.5433,0,-7.4762,-7.4857,-7.4863,-7.4928,-7.5033,-7.5025,-7.5128,-7.5145,-7.518,-7.5247,-7.5217,-7.528,-7.5271,-7.5334,-7.5331,-7.543,-7.5445,-7.545,-7.5448,-7.5453,-7.5453,-7.5475,-7.5465,-7.544,-7.5439,-7.5437,-7.5436,0,-7.4933,-7.4941,-7.5054,-7.5094,-7.5106,-7.5182,-7.5215,-7.5276,-7.5285,-7.5369,-7.5389,-7.5402,-7.5474,-7.5475,-7.5557,-7.5555,-7.5677,-7.5663,-7.5664,-7.5661,-7.5741,-7.5734,-7.6001,-7.6036,-7.5801,-7.5803,-7.5805,0,-7.5048,-7.512,-7.5169,-7.5213,-7.524,-7.531,-7.5353,-7.5348,-7.5393,-7.5448,-7.5502,-7.5572,-7.5628,-7.5745,-7.5761,-7.5823,-7.581,-7.59,-7.5819,-7.5823,-7.5812,-7.5809,-7.5816,-7.5915,-7.5918,-7.592,-7.5922,0,-7.5251,-7.5252,-7.5316,-7.5382,-7.5435,-7.5485,-7.5532,-7.5569,-7.5569,-7.5621,-7.5696,-7.574,-7.5825,-7.5895,-7.5956,-7.5977,-7.595,-7.5947,-7.5969,-7.5975,-7.5973,-7.5976,-7.5707,-7.5941,-7.5939,-7.5938,-7.5937,-7.5936,-7.5398,-7.5461,-7.5506,-7.5578,-7.5614,-7.5659,-7.5719,-7.5736,-7.5799,-7.587,-7.5862,-7.5946,-7.5987,-7.6066,-7.6093,-7.6158,-7.6126,-7.6158,-7.6166,-7.6174,-7.6183,-7.5963,-7.6168,-7.6168,-7.6167,-7.6167,-7.6166,0,-7.5601,-7.5628,-7.5695,-7.5763,-7.582,-7.5791,-7.5842,-7.5891,-7.5966,-7.6008,-7.6064,-7.6151,-7.6218,-7.624,-7.6306,-7.6353,-7.6342,-7.637,-7.6367,-7.6372,-7.6207,-7.6182,-7.6378,-7.6378,-7.6378,-7.6378,-7.6378,-7.6378,-7.5713,-7.5818,-7.5825,-7.5947,-7.5973,-7.6057,-7.6089,-7.613,-7.6163,-7.6262,-7.632,-7.6334,-7.6368,-7.6436,-7.6496,-7.6501,-7.6526,-7.656,-7.656,-7.6405,-7.6384,-7.6363,-7.634,-7.6566,-7.6566,-7.6719,-7.6721,-7.6722]}]]